Погода в Виламоре

Португалия     37°06′14″N   8°07′18″W
темп.,
°C
ветер,
м/с
пор.,
м/с
влажн.,
%
обл.,
%
осадки,
мм/ч
давл.,
гПа
погр.,
м
6 марта, сб
сб600:00+14всв798537 0.8 1014593
03:00+13всв7108980 0.8 1015535
06:00+12св698387 0.8 1015353
09:00+14всв577625 0.0 1017302
12:00+16в687322 0.1 1018572
15:00+16вюв347135 0.3 1016444
18:00+15зюз337520 0.4 1017122
21:00+14сз458222 0.4 1019172
7 марта, вс
вс700:00+14ссз347711 0.4 1018132
03:00+14ссв12740 0.0 101891
06:00+13с12690 0.0 1018115
09:00+14ююз01630 0.0 1018176
12:00+16юз33630 0.0 1019510
15:00+17зюз56671 0.0 1017711
18:00+17сз687310 0.1 1016149
21:00+14ссз57820 0.0 1018204
8 марта, пн
пн800:00+12сз68890 0.0 1018268
03:00+12ссз45842 0.0 1017180
06:00+11ссз34752 0.0 1017145
09:00+11ссз457169 0.0 1018275
12:00+15сз455752 0.0 1019815
15:00+15з66640 0.0 1017726
18:00+14сз89700 0.0 1017511
21:00+11сз69810 0.0 1019411
9 марта, вт
вт900:00+10ссз56790 0.0 1019215
03:00+9ссз33790 0.0 1018138
06:00+10св22770 0.0 1018144
09:00+12с11710 0.0 1020175
12:00+13ю33700 0.0 1020438
15:00+14юз43710 0.0 1019338
18:00+14зюз34737 0.0 1019222
21:00+14с59652 0.0 1022277
10 марта, ср
ср1000:00+14ссв46662 0.0 1023170
03:00+13с226456 0.0 102270
06:00+13с336528 0.0 102379
09:00+14всв22610 0.0 1025146
12:00+15юв33630 0.0 1025456
15:00+15ююв22690 0.0 1024239
18:00+15з22700 0.0 1024132
21:00+14ссз33700 0.0 102693